Regional Weather Roundup
Issued by NWS Lake Charles, LA

Home | Current Version | Previous Version | Text Only | Print | Product List | Glossary On
Versions: 1 2 3 4 5 6 7 8 9 10 11 12 13 14 15 16 17 18 19 20 21 22 23 24 25 26 27 28 29 30 31 32 33 34 35 36 37 38 39 40 41 42 43 44 45 46 47 48 49 50
000
ASUS44 KLCH 012310
RWRLCH
RWRLCH
REGIONAL WEATHER ROUNDUP
NATIONAL WEATHER SERVICE LAKE CHARLES LA
600 PM CDT TUE SEP 01 2015

Note: "fair" indicates few or no clouds below 12,000 feet with no
significant weather and/or obstructions to visibility.


ACROSS SOUTHEAST TEXAS

CITY           SKY/WX    TMP DP  RH WIND       PRES   REMARKS
BEAUMONT       LGT RAIN  78  73  84 CALM      30.02F
BEAUMONT CITY    N/A     76  74  93 CALM      30.03F
ORANGE         CLOUDY   N/A N/A N/A CALM      30.05F
JASPER         CLOUDY    83  75  76 S3        30.06S
$$

ACROSS CENTRAL LOUISIANA

CITY           SKY/WX    TMP DP  RH WIND       PRES   REMARKS
LEESVILLE      CLOUDY    77  70  79 SW8       30.04R THUNDER
FULLERTON      TSTM      75  73  93 CALM      30.02F
ALEXANDRIA INT CLOUDY    82  71  69 W6        30.01S
ESLER FIELD    CLOUDY    88  71  57 SW5       30.03R
DERIDDER       MOCLDY    80  71  73 S9        30.07R
OAKDALE          N/A     73  71  94 SW5       30.05S
OPELOUSAS      TSTM      74  70  87 S10       30.04R
$$

ACROSS SOUTHWEST AND SOUTH CENTRAL LOUISIANA

CITY           SKY/WX    TMP DP  RH WIND       PRES   REMARKS
SULPHUR        CLOUDY    79  76  91 CALM      30.04F
LAKE CHARLES   CLOUDY    77  73  87 CALM      30.03F
CHENNAULT INT  PTSUNNY   77  72  83 S9        30.04
CAMERON PHI    CLEAR     77  73  88 CALM      30.05F
DEQUINCY         N/A     75  75 100 CALM      30.05R
JENNINGS         N/A     78  73  83 N5        30.04S
LAFAYETTE      LGT RAIN  78  73  84 N5        30.03R
NEW IBERIA     CLOUDY    84  71  65 W3        30.02F
ABBEVILLE        N/A     83  73  72 W3        30.03R
PATTERSON      CLOUDY    82  72  69 S3        30.02S
SALT POINT       N/A     84  74  71 CALM      30.00F
$$

SELECTED SITES ACROSS THE REGION

CITY           SKY/WX    TMP DP  RH WIND       PRES   REMARKS
HOUSTON BUSH   CLOUDY    79  72  79 SE10      30.02F
HOUSTON HOBBY  CLOUDY    79  73  82 E6        30.01F
GALVESTON      CLOUDY    82  69  64 E13       30.02S
COLLEGE STAT   SUNNY     86  67  52 SE17      30.00R
CONROE         CLOUDY    82  67  60 S12       30.03F
HUNTSVILLE     PTSUNNY   83  69  62 VRB6      30.03R
LUFKIN         CLOUDY    82  68  62 S9        30.03R
SHREVEPORT     CLOUDY    87  71  58 S6        30.02S
MONROE         CLOUDY    78  66  66 E12       30.05R
NATCHEZ MS     CLOUDY    86  72  62 NE5       30.03S
BATON ROUGE    PTSUNNY   89  63  41 E6        30.01F
N.O. INTL ARPT PTSUNNY   87  69  54 S12       30.01F
SLIDELL        MOSUNNY   88  72  58 SE7       30.02F
$$

MARINE REPORTS

STATION/POSITION TIME  TEMP    WIND        PRES    VSBY  WAVE
                       AIR SEA DIR/SP/G                  HT/PER
                 (UTC) (F)     (DEG/KT/KT) (MB)    (MI)  (FT/S)
BUOY 30 S HIGH I 2250   82 85  100/ 16/ 17 1015.5F         3/ 5
SEA RIM ST PARK  2300   78      90/  5/  6 1016.7F
PORT ARTHUR      2200      85  160/  3/  4 1017.5R
SABINE PASS N    2200   78 84  130/  6/  8 1017.6S
TEXAS POINT      NOT AVBL
CALCASIEU PASS   2200   78 84  230/  6/ 10 1016.8S
LK CHARLES BEACH 2200   77 86                N/A
MARSH ISLAND     2200   84     160/  8/ 10   N/A           0
FRESH WATER LOCK 2200   83 84  150/  5/  8 1016.7F
AMERADA PASS     2200   83 85  160/  2/  4 1016.6F
$$



USA.gov is the U.S. government's official web portal to all federal, state and local government web resources and services.